Ardmore, OK

11:14 AM CDT on October 20, 2017 (GMT -0500)
Ardmore Municipal

Weather History for KADM - March, 2013

Change the Weather History Date:

Wednesday, March 20, 2013

  Actual Average Record
Temperature  
Mean Temperature 45 °F -  
Max Temperature 53 °F 63 °F 91 °F (2017)
Min Temperature 37 °F 44 °F 30 °F (2014)
Degree Days  
Heating Degree Days 20    
Moisture  
Dew Point 34 °F    
Average Humidity 63    
Maximum Humidity 81    
Minimum Humidity 47    
Precipitation  
Precipitation 0.00 in - - ()
Sea Level Pressure  
Sea Level Pressure 30.21 in    
Wind  
Wind Speed 7 mph (NNE)    
Max Wind Speed 10 mph    
Max Gust Speed -    
Visibility 10 miles    
Events      
Averages and records for this station are not official NWS values.
T = Trace of Precipitation, MM = Missing Value Source: NWS Daily Summary

Daily Weather History Graph

Daily Weather History Graph

Search for Another Location

Airport or City:

Trip Planner

Search our weather history database for the weather conditions in past years. The results will help you decide how hot, cold, wet, or windy it might be!

Date:

Astronomy

Mar. 20, 2013 Rise Set
Actual Time 7:31 AM CDT 7:39 PM CDT
Civil Twilight 7:06 AM CDT 8:05 PM CDT
Nautical Twilight 6:37 AM CDT 8:34 PM CDT
Astronomical Twilight 6:07 AM CDT 9:03 PM CDT
Moon 1:29 PM CDT 2:58 AM CDT
Length of Visible Light 12h 58m
Length of Day
12h 08m
First Quarter, 59% of the Moon is Illuminated
Mar 20
First Quarter
Mar 27
Full
Apr 2
Last Quarter
Apr 10
New
Apr 18
First Quarter

Hourly Weather History & Observations

Time (CDT) Temp. Windchill Dew Point Humidity Pressure Visibility Wind Dir Wind Speed Gust Speed Precip Events Conditions
12:15 AM 53.6 °F - 37.4 °F 54% 30.18 in 10.0 mi ENE 10.4 mph - N/A   Clear
12:35 AM 53.6 °F - 37.4 °F 54% 30.20 in 10.0 mi NE 9.2 mph - N/A   Clear
12:55 AM 51.8 °F - 37.4 °F 58% 30.20 in 10.0 mi ENE 9.2 mph - N/A   Clear
1:15 AM 53.6 °F - 35.6 °F 51% 30.20 in 10.0 mi East 5.8 mph - N/A   Clear
1:35 AM 51.8 °F - 35.6 °F 54% 30.21 in 10.0 mi NE 3.5 mph - N/A   Clear
1:55 AM 51.8 °F - 35.6 °F 54% 30.22 in 10.0 mi NE 4.6 mph - N/A   Clear
2:15 AM 50.0 °F - 37.4 °F 62% 30.22 in 10.0 mi North 3.5 mph - N/A   Clear
2:35 AM 50.0 °F - 35.6 °F 58% 30.22 in 10.0 mi North 5.8 mph - N/A   Clear
2:55 AM 46.4 °F 43.5 °F 35.6 °F 66% 30.22 in 10.0 mi North 5.8 mph - N/A   Clear
3:15 AM 44.6 °F 41.4 °F 33.8 °F 66% 30.23 in 10.0 mi North 5.8 mph - N/A   Clear
3:35 AM 44.6 °F 40.2 °F 32.0 °F 61% 30.23 in 10.0 mi North 8.1 mph - N/A   Clear
3:55 AM 42.8 °F 37.5 °F 32.0 °F 66% 30.23 in 10.0 mi North 9.2 mph - N/A   Clear
4:15 AM 42.8 °F 38.0 °F 32.0 °F 66% 30.23 in 10.0 mi North 8.1 mph - N/A   Clear
4:35 AM 42.8 °F 41.1 °F 32.0 °F 66% 30.24 in 10.0 mi NNW 3.5 mph - N/A   Clear
4:55 AM 41.0 °F 36.4 °F 32.0 °F 70% 30.24 in 10.0 mi North 6.9 mph - N/A   Clear
5:15 AM 41.0 °F - 32.0 °F 70% 30.25 in 10.0 mi Calm Calm - N/A   Clear
5:35 AM 39.2 °F - 30.2 °F 70% 30.25 in 10.0 mi Calm Calm - N/A   Clear
5:55 AM 39.2 °F 37.0 °F 30.2 °F 70% 30.26 in 10.0 mi North 3.5 mph - N/A   Clear
6:15 AM 39.2 °F 35.9 °F 30.2 °F 70% 30.27 in 10.0 mi North 4.6 mph - N/A   Clear
6:35 AM 37.4 °F 33.8 °F 32.0 °F 81% 30.28 in 10.0 mi North 4.6 mph - N/A   Clear
8:55 AM 42.8 °F 38.6 °F 32.0 °F 66% 30.33 in 10.0 mi North 6.9 mph - N/A   Clear
8:55 PM 51.8 °F - 32.0 °F 47% 30.08 in 10.0 mi East 5.8 mph - N/A   Clear
11:35 PM 46.4 °F 42.9 °F 33.8 °F 62% 30.05 in 10.0 mi East 6.9 mph - N/A   Clear
11:55 PM 46.4 °F 43.5 °F 33.8 °F 62% 30.04 in 10.0 mi East 5.8 mph - N/A   Clear